Погода в Норуэй-Хаус

Канада     53°59′25″N   97°48′56″W
темп.,
°C
ветер,
м/с
пор.,
м/с
влажн.,
%
обл.,
%
осадки,
мм/ч
давл.,
гПа
погр.,
м
25 февраля, чт
чт2500:00−15ююв129796 0.1 102031
03:00−16ююз229898 0.1 101934
06:00−17юз239995 0.1 101648
09:00−13ююз499559 0.0 1013295
12:00−7ююз6128879 0.0 1008462
15:00−4ююз61282100 0.0 1003702
18:00−5ю41190100 0.0 999427
21:00−5ю31192100 0.0 996408
26 февраля, пт
пт2600:00−6юв2496100 0.0 994100
03:00−15ссв81494100 1.9 996354
06:00−24ссв71495100 2.6 1000471
09:00−26ссв71594100 0.8 1005506
12:00−25ссв61286100 0.9 1009538
15:00−23ссв61081100 0.0 1012593
18:00−26с5108490 0.0 1015475
21:00−28ссв398726 0.0 1019319
27 февраля, сб
сб2700:00−30ссв249212 0.0 1021129
03:00−32ссз23940 0.0 102479
06:00−32ссз129232 0.0 102671
09:00−29з138698 0.0 1027214
12:00−24з237498 0.0 1027457
15:00−22юз3480100 0.0 1025508
18:00−22юз2589100 0.0 1024318
21:00−22юз2595100 0.0 1023230
28 февраля, вс
вс2800:00−21юз2790100 0.0 1021276
03:00−21юз2598100 0.1 1019222
06:00−21юз2596100 0.1 1017225
09:00−20зюз3595100 0.3 1013328
12:00−18сз4788100 0.5 1013627
15:00−18ссз6877100 0.1 10151330
18:00−23ссз4983100 0.1 1020608
21:00−27ссз379120 0.0 1024211
1 марта, пн
пн100:00−29зсз229410 0.0 102634
03:00−29зюз23910 0.0 102756
06:00−27юз238948 0.0 1026112
09:00−23ю2595100 0.0 1024220
12:00−17ю4884100 0.0 1021499
15:00−16ю5990100 0.1 1018564
18:00−16ююв2695100 0.5 1016255
21:00−16юв2596100 0.1 1014157